This demonstration page uses our WeatherBlox Daily Observations layout. Learn more.

Left ArrowRight Arrow

38.89511, -77.03637

Hourly Observations for October 1, 2015

Temp ( °F °C ) Dew Point ( °F °C ) Humidity (%) Winds ( mph kmh ) Pressure ( in mb ) Visibility ( mi km ) Precip ( " mm )
12:52 am 00:52 Cloudy 63 17.2 56 13.3 78 78 N 14 22 29.95 1014 10 16 N/A
12:59 am 00:59 Cloudy with Light Rain 63 17 57 14 83 83 N 10 17 29.94 1014 10 16 N/A
1:11 am 01:11 Cloudy with Light Rain 63 17 57 14 83 83 N 14 22 29.97 1015 5 8 N/A
1:52 am 01:52 Cloudy with Light Rain 60 15.6 58 14.4 93 93 N 13 20 29.96 1014 4 6 N/A
1:56 am 01:56 Cloudy with Light Rain 61 16 57 14 88 88 N 12 19 29.97 1015 4 6 N/A
2:04 am 02:04 Cloudy with Light Rain 61 16 57 14 88 88 N 12 19 29.97 1015 4 6 N/A
2:52 am 02:52 Cloudy with Light Rain 59 15 57 13.9 93 93 N 13 20 29.96 1015 3 5 0.02 0.51
3:33 am 03:33 Cloudy with Light Rain 59 15 57 14 94 94 N 14 22 29.97 1015 4 6 0.04 1.02
3:52 am 03:52 Cloudy with Light Rain 58 14.4 56 13.3 93 93 N 17 28 29.95 1014 5 8 0.06 1.52
4:52 am 04:52 Cloudy with Light Rain 58 14.4 56 13.3 93 93 N 15 24 29.95 1014 5 8 0.02 0.51
5:06 am 05:06 Cloudy with Light Rain 57 14 55 13 94 94 N 14 22 29.97 1015 4 6 N/A
5:45 am 05:45 Cloudy with Light Rain 57 14 55 13 94 94 N 13 20 29.97 1015 4 6 N/A
5:52 am 05:52 Cloudy with Mist and Fog 58 14.4 56 13.3 93 93 N 13 20 29.97 1015 4 6 N/A
6:52 am 06:52 Cloudy with Light Rain 58 14.4 56 13.3 93 93 N 12 19 29.99 1016 5 8 N/A
7:52 am 07:52 Cloudy with Light Rain 58 14.4 56 13.3 93 93 NNE 14 22 30.01 1016 3 5 0.02 0.51
8:52 am 08:52 Cloudy with Light Rain 58 14.4 56 13.3 93 93 NNE 15 24 30.01 1016 3 5 0.05 1.27
9:46 am 09:46 Cloudy with Heavy Rain 57 14 55 13 94 94 NNE 13 20 30.03 1017 3 4 0.05 1.27
9:47 am 09:47 Cloudy with Heavy Rain 57 14 55 13 94 94 N 13 20 30.03 1017 2 3 N/A
10:03 am 10:03 Cloudy with Rain 57 14 55 13 94 94 N 14 22 30.03 1017 3 4 0.06 1.52
10:45 am 10:45 Cloudy with Rain 57 14 57 14 100 100 NNE 14 22 30.03 1017 2 3 0.15 3.81
10:52 am 10:52 Cloudy with Rain 58 14.4 56 13.3 93 93 NNE 13 20 30.04 1017 2 3 0.17 4.32
10:55 am 10:55 Cloudy with Light Rain 57 14 55 13 94 94 NNE 13 20 30.06 1018 3 5 N/A
11:10 am 11:10 Cloudy with Light Rain 57 14 57 14 100 100 NNE 14 22 30.03 1017 3 4 N/A
11:21 am 11:21 Cloudy with Light Rain 57 14 57 14 100 100 N 15 24 30.06 1018 3 5 0.02 0.51
11:52 am 11:52 Cloudy with Light Rain 58 14.4 56 13.3 93 93 NNE 15 24 30.04 1017 4 6 0.05 1.27
12:05 pm 12:05 Cloudy with Rain 57 14 55 13 94 94 NNE 14 22 30.03 1017 2 3 0.02 0.51
12:15 pm 12:15 Cloudy with Rain 57 14 55 13 94 94 NNE 16 26 30.03 1017 2 3 0.04 1.02
12:21 pm 12:21 Cloudy with Light Rain 57 14 55 13 94 94 NNE 15 24 30.06 1018 2 3 0.04 1.02
12:29 pm 12:29 Cloudy with Light Rain 57 14 55 13 94 94 NNE 13 20 30.06 1018 3 5 0.05 1.27
12:52 pm 12:52 Cloudy with Rain 58 14.4 56 13.3 93 93 NNE 13 20 30.05 1018 3 4 0.07 1.78
12:59 pm 12:59 Cloudy with Heavy Rain 57 14 55 13 94 94 NNE 15 24 30.06 1018 1 2 0.05 1.27
1:08 pm 13:08 Cloudy with Light Rain 57 14 55 13 94 94 NNE 14 22 30.06 1018 3 5 N/A
1:23 pm 13:23 Cloudy with Heavy Rain 57 14 55 13 94 94 N 17 28 30.06 1018 3 4 0.11 2.79
1:39 pm 13:39 Cloudy with Light Rain 57 14 55 13 94 94 NNE 13 20 30.06 1018 4 6 0.13 3.30
1:52 pm 13:52 Cloudy with Light Rain 58 14.4 56 13.3 93 93 NNE 17 28 30.05 1018 4 6 0.14 3.56
2:11 pm 14:11 Cloudy with Light Rain 57 14 55 13 94 94 NNE 15 24 30.06 1018 2 2 0.02 0.51
2:18 pm 14:18 Cloudy with Light Rain 57 14 55 13 94 94 NNE 14 22 30.06 1018 3 5 N/A
2:31 pm 14:31 Cloudy with Rain 57 14 55 13 94 94 NNE 14 22 30.06 1018 3 4 0.05 1.27
2:35 pm 14:35 Cloudy with Light Rain 57 14 55 13 94 94 NNE 18 30 30.06 1018 3 5 0.05 1.27
2:52 pm 14:52 Cloudy with Light Rain 58 14.4 55 12.8 90 90 NNE 17 28 30.04 1017 4 6 0.06 1.52
3:14 pm 15:14 Cloudy with Light Rain 57 14 55 13 94 94 NNE 22 35 30.03 1017 3 5 N/A
3:26 pm 15:26 Cloudy with Light Rain 57 14 55 13 94 94 NNE 16 26 30.03 1017 3 5 N/A
3:37 pm 15:37 Cloudy with Light Rain 57 14 55 13 94 94 NNE 13 20 30.03 1017 4 6 0.03 0.76
3:52 pm 15:52 Cloudy with Light Rain 58 14.4 55 12.8 90 90 NNE 16 26 30.04 1017 5 8 0.03 0.76
4:09 pm 16:09 Cloudy with Light Rain 57 14 55 13 94 94 NNE 14 22 30.06 1018 8 13 N/A
4:23 pm 16:23 Cloudy with Light Rain 57 14 55 13 94 94 NNE 12 19 30.06 1018 4 6 N/A
4:41 pm 16:41 Cloudy with Light Rain 57 14 55 13 94 94 NNE 15 24 30.06 1018 4 6 0.01 0.25
4:52 pm 16:52 Cloudy with Light Rain 58 14.4 55 12.8 90 90 NNE 14 22 30.06 1018 4 6 0.01 0.25
5:29 pm 17:29 Cloudy 57 14 55 13 94 94 N 15 24 30.06 1018 7 11 0.01 0.25
5:52 pm 17:52 Cloudy with Light Rain 58 14.4 55 12.8 90 90 NNE 13 20 30.06 1018 10 16 0.01 0.25
6:26 pm 18:26 Cloudy with Light Rain 57 14 55 13 94 94 NNE 15 24 30.06 1018 5 8 N/A
6:52 pm 18:52 Cloudy 57 13.9 55 12.8 93 93 N 17 28 30.08 1019 10 16 N/A
7:18 pm 19:18 Cloudy 57 14 55 13 94 94 NNE 18 30 30.09 1019 10 16 N/A
7:34 pm 19:34 Cloudy with Light Rain 57 14 55 13 94 94 NNE 15 24 30.09 1019 10 16 N/A
7:52 pm 19:52 Cloudy with Light Rain 57 13.9 55 12.8 93 93 NNE 13 20 30.09 1019 10 16 N/A
8:52 pm 20:52 Cloudy 58 14.4 55 12.8 90 90 NNE 14 22 30.09 1019 10 16 N/A
9:52 pm 21:52 Cloudy 58 14.4 55 12.8 90 90 NNE 13 20 30.09 1019 10 16 N/A
10:52 pm 22:52 Cloudy with Light Rain 58 14.4 55 12.8 90 90 NNE 13 20 30.09 1019 8 13 N/A
11:10 pm 23:10 Cloudy with Light Rain 57 14 55 13 94 94 NNE 17 28 30.09 1019 10 16 N/A
11:21 pm 23:21 Cloudy with Light Rain 57 14 55 13 94 94 NNE 14 22 30.09 1019 10 16 N/A
11:52 pm 23:52 Cloudy with Light Rain 58 14.4 55 12.8 90 90 NNE 16 26 30.08 1019 10 16 N/A

Powered by AerisWeather